Terug naar catalogus

SITRO-AIS-24

ActiefCommunicatieSSO
NORAD 61741·PAYLOAD·🇷🇺 Russia
Deze satellietnaam is nog niet bevestigd door officiële bronnen.

Gelanceerd Nov 4, 2024 vanaf Vostochny Cosmodrome

Loading…

Volgende Passages (komende 24 uur)

TLE

VersSource: Space-Track

Epoch: Sep 14, 2026, 19:56 UTC

1 61741U 24199G   26257.83059731  .00002313  00000-0  20790-3 0  9992
2 61741  97.3224  90.1479 0013815 116.6745 243.5894 14.96505085145295

Volg SITRO-AIS-24 in realtime met AllMySat

Download on the App Store